Flag for Mexico Weather past 2 weeks in Guadalajara, Jalisco, Mexico

Now
73 °F

Clear.


Feels Like: 77 °F
Forecast: 61 / 87 °F
Wind: 5 mph from West

Location: Don Miguel / Guadalaj

Current Time: May 27, 2015 at 3:08:17 AM

Latest Report: May 27, 2015 at 12:49 AM


Visibility: 10 mi

Pressure: 29.75 "Hg

Humidity: 44%

Dew point: 50 °F

Location of GuadalajaraLocation

Historic Weather in Guadalajara — Graph

°F

Guadalajara temperature yesterday

Maximum temperature yesterday: 90 °F (at 3:48 PM)
Minimum temperature yesterday: 63 °F (at 6:53 AM)
Average temperature yesterday: 77 °F

Past Weeks' High & Low Weather Summary

 TemperatureHumidityPressure
High93 °F (May 18, 5:47 PM)88% (May 13, 12:54 AM)30.28 "Hg (May 13, 12:54 AM)
Low55 °F (May 14, 6:54 AM)13% (May 25, 6:53 PM)29.66 "Hg (May 21, 6:49 PM)
Average75 °F45%30.04 "Hg
* Reported May 12 12:51 AM — May 27 12:49 AM, Guadalajara, Weather by CustomWeather, © 2015

Note: Actual official high and low records may vary slightly from our data, if they occured in-between our weather recording intervals... More about our weather records

Advertising

Guadalajara weather history for previous 24 hours

 ConditionsComfort  
Time TempWeatherWind HumidityBarometerVisibility
12:49 AM
Wed, May 27
73 °FClear.5 mph44%29.75 "Hg10 mi
11:50 PM
Tue, May 26
73 °FClear.5 mph44%30.16 "Hg10 mi
10:54 PM77 °FPassing clouds.10 mph39%30.12 "Hg10 mi
9:49 PM81 °FPassing clouds.10 mph26%29.69 "Hg10 mi
8:48 PM82 °FPassing clouds.8 mph25%30.07 "Hg10 mi
7:50 PM86 °FScattered clouds.8 mph17%30.05 "Hg10 mi
6:51 PM88 °FScattered clouds.No wind15%29.68 "Hg10 mi
4:52 PM90 °FScattered clouds.5 mph16%30.07 "Hg10 mi
3:48 PM90 °FScattered clouds.7 mph18%29.67 "Hg10 mi
2:53 PM88 °FScattered clouds.No wind19%30.13 "Hg10 mi
1:54 PM84 °FPassing clouds.6 mph23%30.16 "Hg10 mi
12:46 PM82 °FSunny.9 mph25%29.79 "Hg8 mi
11:53 AM82 °FSunny.No wind28%30.21 "Hg8 mi
8:52 AM72 °FPassing clouds.No wind57%30.21 "Hg7 mi
7:52 AM64 °FPassing clouds.No wind68%30.20 "Hg7 mi
6:53 AM63 °FPassing clouds.No wind68%29.80 "Hg8 mi
5:51 AM64 °FClear.6 mph68%30.16 "Hg10 mi
5:04 AM68 °FClear.7 mph60%30.15 "Hg10 mi
Weather by CustomWeather, © 2015

See weather overviewHow to use our weather pages